Vilanova de Sau





Hora UTC 08:25
Temperatura 2.5 ºC
Humitat 97.8 %
Pressió 1022.8 hPa
Pluja 0.0 mm
Velocitat vent 0.0 km/h
Direcció vent NNE
Radiació solar 266.3 W/m²
Fuel 94.6 %

Dades diàries 2020-02-20



Hora UTC (hivern +1h; estiu +2h)
Temperatura (ºC) Humitat (%) Pressió (hPa) Velocitat vent (km/h) Precipitació (mm) Fuel (%) Radiació solar (W/m²)
Hora UTC Aire Humitat Pressió Vel. Dir. Vel. Max Dir. Intent. màx 5 min. Fuel Rad. Sol.
00:05 2.1 97.3 1024.6 0.0 NNE 0.0 WSW 0.0 60.2 0.0
00:10 2.0 97.3 1024.5 0.0 NNE 0.0 WSW 0.0 60.6 0.0
00:15 2.0 97.4 1024.5 0.0 NNE 0.0 SW 0.0 61.0 0.0
00:20 1.9 97.4 1024.4 0.0 NNE 0.0 WSW 0.0 61.4 0.0
00:25 2.1 97.8 1024.3 1.0 W 3.4 W 0.0 61.9 0.0
00:30 2.1 97.6 1024.3 0.0 NNE 0.0 WNW 0.0 62.2 0.0
00:35 2.0 97.5 1024.3 0.0 NNE 0.0 WSW 0.0 62.5 0.0
00:40 1.8 97.5 1024.3 0.0 NNE 0.0 WSW 0.0 62.8 0.0
00:45 1.8 97.6 1024.2 0.0 NNE 0.0 WSW 0.0 63.2 0.0
00:50 1.8 97.8 1024.3 0.0 NNE 0.0 SW 0.0 63.7 0.0
00:55 1.8 97.9 1024.3 0.0 NNE 0.0 SW 0.0 64.1 0.0
01:00 1.7 97.9 1024.2 0.0 NNE 0.0 SW 0.0 64.5 0.0
01:05 1.7 98.0 1024.2 0.0 NNE 0.0 SW 0.0 64.9 0.0
01:10 1.7 98.0 1024.2 0.0 NNE 0.0 SW 0.0 65.3 0.0
01:15 1.8 98.2 1024.1 0.0 NNE 0.0 SW 0.0 65.8 0.0
01:20 1.9 98.2 1024.0 0.0 NNE 0.0 SW 0.0 66.1 0.0
01:25 1.9 98.2 1023.9 0.0 NNE 0.0 SW 0.0 66.3 0.0
01:30 1.8 98.0 1023.9 0.0 NNE 0.0 SW 0.0 66.5 0.0
01:35 1.7 98.1 1023.8 0.0 NNE 0.0 SW 0.0 67.0 0.0
01:40 1.6 98.1 1023.8 0.0 NNE 0.0 SW 0.0 67.3 0.0
01:45 1.6 98.2 1023.8 0.0 NNE 0.0 SW 0.0 67.6 0.0
01:50 1.5 98.2 1023.7 0.0 NNE 0.0 SW 0.0 68.0 0.0
01:55 1.4 98.2 1023.6 0.0 NNE 0.0 SW 0.0 68.2 0.0
02:00 1.4 98.3 1023.6 0.0 NNE 0.0 SW 0.0 68.8 0.0
02:05 1.4 98.3 1023.5 0.0 NNE 0.0 SW 0.0 69.2 0.0
02:10 1.4 98.3 1023.5 0.0 NNE 0.0 SW 0.0 69.6 0.0
02:15 1.3 98.3 1023.5 0.0 NNE 0.0 SW 0.0 69.9 0.0
02:20 1.2 98.2 1023.4 0.0 NNE 0.0 SW 0.0 70.0 0.0
02:25 1.1 98.2 1023.4 0.0 NNE 0.0 SW 0.0 70.4 0.0
02:30 1.0 98.4 1023.4 0.0 NNE 0.0 SW 0.0 71.0 0.0
02:35 1.1 98.6 1023.4 0.0 NNE 0.0 WSW 0.0 71.7 0.0
02:40 1.2 98.7 1023.3 0.0 NNE 0.0 WSW 0.0 72.3 0.0
02:45 1.3 98.5 1023.2 0.0 NNE 0.0 WNW 0.0 72.7 0.0
02:50 1.1 98.4 1023.1 0.0 NNE 0.0 SW 0.0 72.9 0.0
02:55 1.0 98.4 1023.1 0.0 NNE 0.0 SW 0.0 73.2 0.0
03:00 0.9 98.4 1023.0 0.0 NNE 0.0 SW 0.0 73.5 0.0
03:05 0.8 98.5 1023.0 0.0 NNE 0.0 SW 0.0 73.9 0.0
03:10 0.8 98.6 1022.9 0.0 NNE 0.0 SW 0.0 74.4 0.0
03:15 0.9 98.6 1022.9 0.0 NNE 0.0 SW 0.0 74.8 0.0
03:20 0.8 98.6 1022.8 0.0 NNE 0.0 SW 0.0 74.8 0.0
03:25 0.6 98.5 1022.7 0.0 NNE 0.0 SW 0.0 74.9 0.0
03:30 0.6 98.7 1022.8 0.0 NNE 0.0 SW 0.0 75.5 0.0
03:35 0.7 98.9 1022.8 0.0 NNE 0.0 SW 0.0 76.1 0.0
03:40 0.7 98.9 1022.8 0.0 NNE 0.0 SW 0.0 76.6 0.0
03:45 0.8 98.9 1022.8 0.0 NNE 0.0 WSW 0.0 77.0 0.0
03:50 0.6 98.6 1022.7 0.0 NNE 0.0 WSW 0.0 77.3 0.0
03:55 0.6 98.7 1022.6 0.0 NNE 0.0 WSW 0.0 77.7 0.0
04:00 0.5 98.8 1022.6 0.0 NNE 0.0 SW 0.0 78.0 0.0
04:05 0.5 98.8 1022.6 0.0 NNE 0.0 SW 0.0 78.3 0.0
04:10 0.5 98.9 1022.6 0.0 NNE 0.0 SW 0.0 78.8 0.0
04:15 0.4 98.9 1022.6 0.0 NNE 0.0 SW 0.0 79.1 0.0
04:20 0.4 98.9 1022.6 0.0 NNE 0.0 SW 0.0 79.4 0.0
04:25 0.3 98.9 1022.6 0.0 NNE 0.0 SW 0.0 79.7 0.0
04:30 0.4 99.0 1022.6 0.0 NNE 0.0 N 0.0 80.1 0.0
04:35 0.3 98.9 1022.7 0.0 NNE 0.0 WNW 0.0 80.6 0.0
04:40 0.3 98.9 1022.8 0.0 NNE 0.0 N 0.0 80.8 0.0
04:45 0.2 98.9 1022.7 0.0 NNE 0.0 NNW 0.0 81.3 0.0
04:50 0.2 98.9 1022.7 0.0 NNE 0.0 SW 0.0 81.7 0.0
04:55 0.1 98.9 1022.6 0.0 NNE 0.0 SW 0.0 82.0 0.0
05:00 0.0 98.9 1022.6 0.0 NNE 0.0 SW 0.0 82.4 0.0
05:05 0.0 98.9 1022.6 0.0 NNE 0.0 SW 0.0 82.6 0.0
05:10 -0.2 98.9 1022.6 0.0 NNE 0.0 SW 0.0 82.8 0.0
05:15 -0.2 99.0 1022.6 0.0 NNE 0.0 NNE 0.0 83.2 0.0
05:20 0.0 99.3 1022.6 0.0 NNE 0.0 N 0.0 83.9 0.0
05:25 0.1 99.3 1022.6 0.0 NNE 0.0 NNW 0.0 84.7 0.0
05:30 0.1 99.1 1022.6 0.0 NNE 0.0 NNW 0.0 84.8 0.0
05:35 0.1 99.1 1022.5 0.0 NNE 0.0 NNW 0.0 83.3 0.0
05:40 0.0 98.9 1022.5 0.0 NNE 0.0 WSW 0.0 82.1 0.0
05:45 -0.2 98.8 1022.6 0.0 NNE 0.0 WSW 0.0 81.7 0.0
05:50 -0.3 98.9 1022.6 0.0 NNE 0.0 WSW 0.0 81.4 0.0
05:55 -0.3 99.0 1022.6 0.0 NNE 0.0 N 0.0 81.7 0.0
06:00 -0.3 99.1 1022.5 0.0 NNE 0.0 W 0.0 82.0 0.0
06:05 -0.4 99.1 1022.5 0.0 NNE 0.0 WSW 0.0 82.2 0.0
06:10 -0.4 99.1 1022.5 0.0 NNE 0.0 WSW 0.0 82.2 0.0
06:15 -0.5 99.1 1022.5 0.0 NNE 0.0 WSW 0.0 82.3 0.0
06:20 -0.5 99.2 1022.5 0.0 NNE 0.0 WSW 0.0 82.5 0.1
06:25 -0.5 99.2 1022.5 0.0 NNE 0.0 WSW 0.0 82.5 0.3
06:30 -0.4 99.3 1022.5 0.0 NNE 0.0 N 0.0 83.1 0.8
06:35 -0.2 99.6 1022.5 0.0 NNE 0.0 NW 0.0 84.1 1.7
06:40 0.0 99.4 1022.5 0.0 NNE 0.0 W 0.0 84.6 3.0
06:45 0.0 99.3 1022.5 0.0 NNE 0.0 WSW 0.0 84.9 4.4
06:50 0.1 99.4 1022.5 0.0 NNE 0.0 WNW 0.0 85.3 6.2
06:55 0.1 99.2 1022.5 0.0 NNE 0.0 W 0.0 85.4 9.7
07:00 0.1 99.1 1022.6 0.0 NNE 0.0 W 0.0 85.5 15.1
07:05 0.0 99.1 1022.6 0.0 NNE 0.0 W 0.0 85.7 22.8
07:10 -0.1 99.1 1022.6 0.0 NNE 0.0 W 0.0 85.9 31.6
07:15 -0.1 99.0 1022.6 0.0 NNE 0.0 W 0.0 86.1 34.7
07:20 -0.1 99.0 1022.5 0.0 NNE 0.0 W 0.0 86.4 38.3
07:25 -0.3 98.8 1022.6 0.0 NNE 0.0 ENE 0.0 86.5 44.3
07:30 -0.2 99.0 1022.7 0.0 NNE 0.0 ESE 0.0 87.2 55.3
07:35 -0.1 99.0 1022.7 0.0 NNE 0.0 SE 0.0 87.7 39.4
07:40 0.0 99.1 1022.8 0.0 NNE 0.0 S 0.0 88.0 38.3
07:45 0.1 99.2 1022.7 0.0 NNE 0.0 S 0.0 89.7 90.1
07:50 0.3 99.2 1022.7 0.0 NNE 0.0 S 0.0 93.4 140.7
07:55 0.8 99.0 1022.7 0.0 NNE 0.0 W 0.0 96.3 150.9
08:00 1.4 98.5 1022.7 0.0 NNE 0.0 W 0.0 95.7 106.9
08:05 1.0 97.6 1022.7 0.0 NNE 0.0 W 0.0 94.3 103.6
08:10 0.8 98.1 1022.8 0.0 NNE 0.0 ENE 0.0 94.7 175.5
08:15 1.2 98.2 1022.8 0.0 NNE 0.0 ENE 0.0 94.8 208.1
08:20 1.7 98.3 1022.8 0.0 NNE 0.0 ENE 0.0 94.8 212.7
08:25 2.5 97.8 1022.8 0.0 NNE 0.0 ENE 0.0 94.6 266.3
Màxima 2.7 99.6 1024.6 1.0 W 3.4 W 0.0 96.3 266.3
Mínima -0.5 97.3 1022.5 60.2
Total 0.0